Regional Weather Roundup
Issued by NWS

Home | Current Version | Previous Version | Graphics & Text | Print | Product List | Glossary On
Versions: 1 2 3 4 5 6 7 8 9 10 11 12 13 14 15 16 17 18 19 20 21 22 23 24 25 26 27 28 29 30 31 32 33 34 35 36 37 38
000
ASUS45 KBOU 222107
RWRCO

WEATHER ROUNDUP FOR COLORADO
NATIONAL WEATHER SERVICE DENVER/BOULDER CO
300 PM MDT WED OCT 22 2014

NOTE: "FAIR" INDICATES FEW OR NO CLOUDS BELOW 12000 FEET WITH NO
SIGNIFICANT WEATHER AND/OR OBSTRUCTIONS TO VISIBILITY.

COZ001>005-013-030-031-222200-
...NORTHWEST COLORADO...

CITY           SKY/WX    TMP DP  RH WIND       PRES   REMARKS
CRAIG          SUNNY     58  38  47 VRB7      30.18F
HAYDEN         SUNNY     55  37  50 NW12      30.18F
MEEKER         MOSUNNY   60  35  39 NW10      30.17S
MOUNT WERNER   NOT AVBL
STEAMBOAT SPGS MOSUNNY   55  34  45 W9        30.18F
WALDEN         MOSUNNY   54  27  35 W15G22    30.20S
$$

COZ006>008-011-222200-
...WEST CENTRAL VALLEYS...

CITY           SKY/WX    TMP DP  RH WIND       PRES   REMARKS
GRAND JUNCTION MOSUNNY   67  44  43 W6        30.11F
MONTROSE       MOSUNNY   69  39  33 NW9       30.14F
EAGLE          MOSUNNY   61  37  41 SW20G25   30.17F
RIFLE          MOSUNNY   65  42  43 W16       30.12F
DELTA          MOSUNNY   72  41  33 W6        30.12S
NUCLA          NOT AVBL
$$

COZ017>023-064>068-222200-
...SOUTHWEST COLORADO...

CITY           SKY/WX    TMP DP  RH WIND       PRES   REMARKS
DURANGO        CLOUDY    56  46  69 SW6       30.20F
CORTEZ         SUNNY     68  36  30 W14       30.17F
PAGOSA SPRINGS PTSUNNY   59  33  37 W12       30.25S
TELLURIDE      PTSUNNY   52  33  46 W8        30.32S
WOLF CREEK PAS SNOW      32  32 100 SW16        N/A  VSB<1/4 WCI  21
$$

COZ009-010-012-014-032>034-037-058>063-222200-
...CENTRAL COLORADO...

CITY           SKY/WX    TMP DP  RH WIND       PRES   REMARKS
ASPEN          PTSUNNY   47  38  71 W5        30.25S
BUENA VISTA    CLOUDY    56  32  40 W17G32    30.21S
COPPER MTN     PTSUNNY   39  28  65 SW12G20   30.39S
BERTHOUD PASS  FAIR      32  28  86 W13       30.39S WCI  22
COTTONWOOD PAS CLOUDY    50  32  50 CALM      30.29S
GUNNISON       CLOUDY    55  36  47 SW15      30.26R
KREMMLING      RAIN      52  36  54 W7          N/A
LEADVILLE      PTSUNNY   44  32  62 NW12      30.30S
MONARCH PASS   CLOUDY    32  32 100 SW23G39   30.48S WCI  19
SALIDA         PTSUNNY   61  32  33 W15G23    30.27S
SUNLIGHT       CLOUDY    45  37  76 CALM      30.37R
WILKERSON PASS NOT AVBL
$$

COZ069>075-222200-
...SAN LUIS VALLEY/SANGRE DE CRISTO MOUNTAINS...

CITY           SKY/WX    TMP DP  RH WIND       PRES   REMARKS
ALAMOSA        CLOUDY    63  28  26 N6        30.18F
LA VETA PASS   MOSUNNY   54  28  37 S6        30.31S
SAGUACHE       DRIZZLE   55  32  41 N8        30.22S
$$

COZ035-036-038>040-222200-
...NORTHERN COLORADO FRONT RANGE...

CITY           SKY/WX    TMP DP  RH WIND       PRES   REMARKS
DENVER INTL AP PTSUNNY   72  36  26 N6        30.07S
DMNS CITY PARK   N/A     69  34  27 N6        30.05F
AURORA         PTSUNNY   69  37  30 NE10      30.08S
FRONT RANGE AP PTSUNNY   68  39  34 NW3       30.08F
ERIE MUNI ARPT PTSUNNY   70  33  25 W5        30.05S
BOULDER MUN AP MOSUNNY   64  34  32 SW13G25   30.06R
CENTENNIAL     PTSUNNY   68  32  26 VRB3      30.08S
BROOMFIELD     NOT AVBL
FORT COLLINS   MOSUNNY   66  37  34 N7        30.05S
LONGMONT       CLOUDY    70  35  28 W20G28    30.07R
$$

COZ041-046-047-076>085-087-088-222200-
...PIKES PEAK/PALMER DIVIDE AND SOUTHERN FOOTHILLS...

CITY           SKY/WX    TMP DP  RH WIND       PRES   REMARKS
COLO. SPRINGS  MOSUNNY   65  37  35 SE12      30.11S
A. F. ACADEMY  LGT RAIN  61  44  54 NE8       30.13R
ELLICOTT       MOSUNNY   64  36  35 SW10      30.10F
FALCON         MOSUNNY   67  33  28 S9        30.14F
FORT CARSON    PTSUNNY   64  42  44 E6        30.08S
LIMON          MOSUNNY   65  36  34 CALM      30.09S
MONUMENT HILL  CLOUDY    63  32  31 SW15G21   30.13S
TRINIDAD       SUNNY     70  37  29 N5        30.09F
$$

COZ042>045-048>051-090-091-222200-
...NORTHEAST COLORADO...

CITY           SKY/WX    TMP DP  RH WIND       PRES   REMARKS
GREELEY ARPT   MOSUNNY   70  39  32 S9        30.05S
AKRON          SUNNY     67  37  33 VRB7      30.06F
BURLINGTON     SUNNY     72  39  30 NE7       30.04S
WRAY           SUNNY     73  36  25 N9        30.03S
STERLING       SUNNY     72  39  30 CALM      30.04R
HOLYOKE        SUNNY     73  34  23 N12G20    30.04S
FORT MORGAN    SUNNY     69  37  30 N6        30.06S
$$

COZ086-089-092>099-222200-
...SOUTHEAST COLORADO...

CITY           SKY/WX    TMP DP  RH WIND       PRES   REMARKS
PUEBLO         MOSUNNY   73  38  27 MISG      30.02F
LA JUNTA       SUNNY     74  42  31 VRB3      30.02F
LAMAR          SUNNY     76  45  33 NE12G17   30.00S
SPRINGFIELD      N/A     73  43  33 NE6       30.04S
$$



USA.gov is the U.S. government's official web portal to all federal, state and local government web resources and services.